Home   Weather   San Salvador   Past weeks

Flag for El Salvador Past Weather in San Salvador, El Salvador — Yesterday and Last 2 Weeks

Now
75 °F

Passing clouds.


Feels Like: 75 °F
Forecast: 66 / 80 °F
Wind: 10 mph from South

Location: San Salvador / Ilopango

Current Time: Dec 4, 2016 at 6:29:08 pm

Latest Report: Dec 4, 2016 at 5:50 pm


Visibility: 5 mi

Pressure: 29.92 "Hg (27.71 "Hg at 667m altitude)

Humidity: 83%

Dew Point: 70 °F

Location of San SalvadorLocation

Past Weather in San Salvador — Graph

°F

San Salvador Temperature Yesterday

Maximum temperature yesterday: 86 °F (at 1:50 pm)
Minimum temperature yesterday: 72 °F (at 5:50 am)
Average temperature yesterday: 77 °F

High & Low Weather Summary for the Past Weeks

 TemperatureHumidityPressure
High86 °F (Nov 24, 1:50 pm)100% (Nov 29, 9:50 pm)30.04 "Hg (Nov 29, 9:50 pm)
Low64 °F (Nov 21, 10:50 pm)43% (Nov 23, 3:50 pm)29.86 "Hg (Nov 28, 4:50 pm)
Average76 °F70%29.97 "Hg
* Reported Nov 19 4:50 pm — Dec 4 4:50 pm, San Salvador, Weather by CustomWeather, © 2016

Note: Actual official high and low records may vary slightly from our data, if they occured in-between our weather recording intervals... More about our weather records

Advertising

San Salvador Weather History for the Previous 24 Hours

Scroll right to see more
 ConditionsComfort  
Time TempWeatherWind HumidityBarometerVisibility
4:50 pm
Sun, Dec 4
77 °FScattered clouds.8 mph83%29.92 "HgN/A
3:50 pm81 °FPassing clouds.6 mph70%29.89 "HgN/A
2:50 pm81 °FPassing clouds.8 mph70%29.92 "Hg5 mi
1:50 pm84 °FPassing clouds.5 mph66%29.92 "Hg5 mi
12:50 pm84 °FHaze.6 mph66%29.92 "Hg4 mi
11:50 am81 °FScattered clouds.8 mph74%29.95 "Hg4 mi
10:50 am82 °FFog.6 mph66%29.95 "Hg2 mi
9:50 am79 °FFog.3 mph74%29.98 "Hg2 mi
8:50 am77 °FFog.2 mph79%29.98 "Hg2 mi
7:50 am75 °FFog.3 mph89%29.95 "Hg2 mi
6:50 am70 °FFog.2 mph88%29.95 "Hg4 mi
5:50 am70 °FFog.2 mph94%29.95 "Hg4 mi
11:50 pm
Sat, Dec 3
73 °FPassing clouds.No wind83%29.95 "HgN/A
10:50 pm73 °FPassing clouds.3 mph83%29.95 "HgN/A
9:50 pm73 °FPassing clouds.2 mph83%29.95 "HgN/A
8:50 pm72 °FClear.2 mph88%29.95 "Hg10 mi
7:50 pm72 °FClear.5 mph88%29.95 "Hg10 mi
6:50 pm73 °FClear.2 mph83%29.92 "Hg10 mi
Weather by CustomWeather, © 2016

See weather overviewHow to use our weather pages